| time (UTC) | temp F | wind direction | speed knots | gust knots | rain 1hr in | rain 24hr in | rain mn in | humidity % | barometer mb |
| 20260505080032 | 65 | 189 | 0.0 | 1.7 | 0.00 | 0.00 | 0.00 | 91 | 1010.2 |
| 20260505074525 | 65 | 209 | 0.0 | 1.7 | 0.00 | 0.00 | 0.00 | 91 | 1010.4 |
| 20260505073009 | 65 | 232 | 0.0 | 1.7 | 0.00 | 0.00 | 0.00 | 90 | 1010.3 |
| 20260505071546 | 65 | 295 | 0.0 | 1.7 | 0.00 | 0.00 | 0.00 | 90 | 1010.4 |
| 20260505070041 | 66 | 235 | 0.0 | 2.6 | 0.00 | 0.00 | 0.00 | 88 | 1010.7 |
| 20260505064517 | 66 | 269 | 0.9 | 2.6 | 0.00 | 0.00 | 0.00 | 88 | 1010.8 |
| 20260505063052 | 67 | 179 | 0.0 | 1.7 | 0.00 | 0.00 | 0.00 | 87 | 1011.0 |
| 20260505061536 | 67 | 237 | 0.0 | 4.3 | 0.00 | 0.00 | 0.00 | 86 | 1011.0 |
| 20260505060011 | 68 | 108 | 0.0 | 2.6 | 0.00 | 0.00 | 0.00 | 85 | 1010.9 |
| 20260505054545 | 68 | 217 | 1.7 | 6.1 | 0.00 | 0.00 | 0.00 | 84 | 1010.9 |
| 20260505053111 | 68 | 225 | 1.7 | 7.0 | 0.00 | 0.00 | 0.00 | 84 | 1011.0 |
| 20260505051530 | 68 | 204 | 0.9 | 8.7 | 0.00 | 0.00 | 0.00 | 83 | 1011.1 |
| 20260505050104 | 68 | 141 | 2.6 | 7.0 | 0.00 | 0.00 | 0.00 | 82 | 1011.1 |
| 20260505041544 | 69 | 288 | 0.9 | 5.2 | 0.00 | 0.00 | 0.00 | 80 | 1011.4 |
| 20260505040024 | 69 | 216 | 2.6 | 7.8 | 0.00 | 0.00 | 0.00 | 79 | 1011.4 |
| 20260505034512 | 69 | 147 | 1.7 | 7.8 | 0.00 | 0.00 | 0.00 | 79 | 1011.7 |
| 20260505033038 | 70 | 185 | 1.7 | 5.2 | 0.00 | 0.00 | 0.00 | 78 | 1011.4 |
| 20260505031515 | 70 | 189 | 2.6 | 7.8 | 0.00 | 0.00 | 0.00 | 77 | 1011.3 |
| 20260505030010 | 70 | 214 | 1.7 | 7.0 | 0.00 | 0.00 | 0.00 | 76 | 1011.4 |
| 20260505024527 | 70 | 165 | 1.7 | 7.0 | 0.00 | 0.00 | 0.00 | 76 | 1011.7 |
| 20260505023100 | 70 | 275 | 0.9 | 2.6 | 0.00 | 0.00 | 0.00 | 76 | 1011.5 |
| 20260505021511 | 71 | 214 | 0.9 | 6.1 | 0.00 | 0.00 | 0.00 | 74 | 1011.3 |
| 20260505020035 | 71 | 253 | 1.7 | 7.0 | 0.00 | 0.00 | 0.00 | 74 | 1011.1 |
| 20260505014550 | 71 | 156 | 1.7 | 5.2 | 0.00 | 0.00 | 0.00 | 76 | 1010.9 |
| 20260505013101 | 71 | 202 | 0.0 | 2.6 | 0.00 | 0.00 | 0.00 | 75 | 1011.0 |
| 20260505011544 | 72 | 235 | 0.9 | 5.2 | 0.00 | 0.00 | 0.00 | 72 | 1010.9 |
| 20260505010046 | 73 | 329 | 0.9 | 1.7 | 0.00 | 0.00 | 0.00 | 72 | 1010.6 |
| 20260505004610 | 73 | 154 | 0.9 | 4.3 | 0.00 | 0.00 | 0.00 | 71 | 1010.6 |
| 20260505004501 | 74 | 215 | 0.0 | 4.3 | 0.00 | 0.00 | 0.00 | 70 | 1010.7 |
| 20260505003032 | 74 | 130 | 0.9 | 7.8 | 0.00 | 0.00 | 0.00 | 68 | 1010.8 |
| 20260505001534 | 75 | 318 | 0.9 | 9.6 | 0.00 | 0.00 | 0.00 | 67 | 1011.0 |
| 20260505000038 | 76 | 170 | 1.7 | 8.7 | 0.00 | 0.00 | 0.00 | 67 | 1011.0 |
| 20260504234504 | 77 | 106 | 1.7 | 7.8 | 0.00 | 0.00 | 0.00 | 65 | 1011.0 |
| 20260504233008 | 77 | 312 | 0.9 | 4.3 | 0.00 | 0.00 | 0.00 | 63 | 1011.1 |
| 20260504231534 | 78 | 192 | 0.9 | 7.0 | 0.00 | 0.00 | 0.00 | 62 | 1011.1 |
| 20260504230026 | 78 | 231 | 2.6 | 10.4 | 0.00 | 0.00 | 0.00 | 59 | 1011.3 |
| 20260504224510 | 80 | 147 | 2.6 | 7.8 | 0.00 | 0.00 | 0.00 | 59 | 1011.3 |
| 20260504223033 | 81 | 186 | 0.9 | 10.4 | 0.00 | 0.00 | 0.00 | 57 | 1011.6 |
| 20260504221539 | 80 | 163 | 2.6 | 7.8 | 0.00 | 0.00 | 0.00 | 55 | 1011.7 |
| 20260504220050 | 80 | 162 | 1.7 | 6.1 | 0.00 | 0.00 | 0.00 | 54 | 1011.9 |
| 20260504214540 | 80 | 275 | 1.7 | 10.4 | 0.00 | 0.00 | 0.00 | 53 | 1012.0 |
| 20260504213051 | 81 | 95 | 1.7 | 12.2 | 0.00 | 0.00 | 0.00 | 54 | 1012.1 |
| 20260504211517 | 81 | 56 | 1.7 | 8.7 | 0.00 | 0.00 | 0.00 | 51 | 1012.4 |
| 20260504210023 | 81 | 201 | 1.7 | 12.2 | 0.00 | 0.00 | 0.00 | 49 | 1012.8 |
| 20260504204540 | 81 | 277 | 1.7 | 7.0 | 0.00 | 0.00 | 0.00 | 51 | 1012.9 |
| 20260504203008 | 80 | 214 | 3.5 | 8.7 | 0.00 | 0.00 | 0.00 | 49 | 1013.3 |
| 20260504201541 | 81 | 210 | 1.7 | 10.4 | 0.00 | 0.00 | 0.00 | 49 | 1013.5 |
| 20260504200044 | 81 | 257 | 1.7 | 7.8 | 0.00 | 0.00 | 0.00 | 49 | 1013.9 |
| 20260504194553 | 80 | 214 | 1.7 | 7.0 | 0.00 | 0.00 | 0.00 | 49 | 1014.1 |
| 20260504193057 | 80 | 174 | 1.7 | 7.0 | 0.00 | 0.00 | 0.00 | 48 | 1014.1 |
| 20260504191531 | 79 | 110 | 1.7 | 10.4 | 0.00 | 0.00 | 0.00 | 49 | 1014.4 |
| 20260504190031 | 79 | 265 | 0.9 | 6.1 | 0.00 | 0.00 | 0.00 | 47 | 1014.6 |
| 20260504184501 | 80 | 283 | 0.9 | 6.1 | 0.00 | 0.00 | 0.00 | 50 | 1014.8 |
| 20260504183022 | 78 | 205 | 3.5 | 10.4 | 0.00 | 0.00 | 0.00 | 44 | 1015.1 |
| 20260504181533 | 79 | 194 | 1.7 | 8.7 | 0.00 | 0.00 | 0.00 | 45 | 1015.2 |
| 20260504180055 | 77 | 329 | 2.6 | 7.8 | 0.00 | 0.00 | 0.00 | 48 | 1015.6 |
| 20260504174521 | 77 | 230 | 3.5 | 7.8 | 0.00 | 0.00 | 0.00 | 46 | 1016.0 |
| 20260504173035 | 77 | 289 | 1.7 | 4.3 | 0.00 | 0.00 | 0.00 | 47 | 1016.1 |
| 20260504171506 | 77 | 94 | 2.6 | 8.7 | 0.00 | 0.00 | 0.00 | 51 | 1016.2 |
| 20260504081554 | 53 | 158 | 0.0 | 0.9 | 0.00 | 0.00 | 0.00 | 93 | 1017.6 |